This is the latest recevied weather packets stored in our database for station/object W0SS-13. If no packets are shown the sender has not sent any weather packets the latest 10 day(s).
| Time | Temp. | Humidity | Pressure | Rain* | Wind** | Luminosity | Snow |
|---|---|---|---|---|---|---|---|
| 1777986054 | 8.89° C | 85% | 1012.4 hPa | 1.78 mm | - | 8 W/m² | - |
| 1777985750 | 8.89° C | 85% | 1012.2 hPa | 0 mm | - | 18 W/m² | - |
| 1777985447 | 9.44° C | 83% | 1013.2 hPa | 0 mm | - | 5 W/m² | - |
| 1777985144 | 8.89° C | 83% | 1011.6 hPa | 0 mm | - | 9 W/m² | - |
| 1777984840 | 8.89° C | 83% | 1011.1 hPa | 0 mm | - | 16 W/m² | - |
| 1777984537 | 8.89° C | 82% | 1010.7 hPa | 0 mm | - | 19 W/m² | - |
| 1777984233 | 8.89° C | 83% | 1010.5 hPa | 1.27 mm | - | 26 W/m² | - |
| 1777983930 | 8.89° C | 83% | 1010.1 hPa | 1.27 mm | - | 42 W/m² | - |
| 1777983627 | 8.89° C | 83% | 1010.3 hPa | 1.78 mm | - | 44 W/m² | - |
| 1777983323 | 8.89° C | 83% | 1010.8 hPa | 3.05 mm | - | 23 W/m² | - |
| 1777983020 | 8.89° C | 82% | 1010.7 hPa | 1.27 mm | - | 20 W/m² | - |
| 1777982716 | 9.44° C | 79% | 1011.1 hPa | 0 mm | - | 7 W/m² | - |
| 1777982412 | 9.44° C | 78% | 1011.1 hPa | 1.78 mm | - | 3 W/m² | - |
| 1777982107 | 9.44° C | 79% | 1010.6 hPa | 1.78 mm | - | 3 W/m² | - |
| 1777981805 | 9.44° C | 79% | 1010.4 hPa | 1.27 mm | - | 3 W/m² | - |
| 1777981502 | 9.44° C | 79% | 1010.2 hPa | 1.27 mm | - | 3 W/m² | - |
| 1777981198 | 9.44° C | 80% | 1010.3 hPa | 0 mm | - | 3 W/m² | - |
| 1777980894 | 9.44° C | 80% | 1010.4 hPa | 0 mm | - | 3 W/m² | - |
| 1777980589 | 9.44° C | 80% | 1010.5 hPa | 0 mm | - | 2 W/m² | - |
| 1777980282 | 9.44° C | 79% | 1010.4 hPa | 0 mm | - | 1 W/m² | - |
| 1777979978 | 10° C | 78% | 1010.2 hPa | 0 mm | - | 1 W/m² | - |
| 1777979672 | 10° C | 78% | 1010 hPa | 0 mm | - | 0 W/m² | - |
| 1777979369 | 10° C | 77% | 1010.1 hPa | 0 mm | - | 0 W/m² | - |
| 1777979066 | 10° C | 77% | 1010.2 hPa | 0 mm | - | 0 W/m² | - |
| 1777978763 | 10° C | 77% | 1010 hPa | 0 mm | - | 0 W/m² | - |
* Rain latest hour (hover to see other rain measurements)
** Current wind speed in m/s (hover to see current wind gust speed)